"Period start","avg(HW err(1)/warn(2) (#))","avg(Visibility (m))","avg(Weather code (#))","avg(Precip intensity (mm/h))","min(HW err(1)/warn(2) (#))","max(HW err(1)/warn(2) (#))","std(HW err(1)/warn(2) (#))","med(HW err(1)/warn(2) (#))","min(Visibility (m))","max(Visibility (m))","std(Visibility (m))","med(Visibility (m))","min(Weather code (#))","max(Weather code (#))","std(Weather code (#))","med(Weather code (#))","min(Precip intensity (mm/h))","max(Precip intensity (mm/h))","std(Precip intensity (mm/h))","med(Precip intensity (mm/h))"
2014-07-04 00:00:00,2,29081,0,0.00,2,2,0,2,19253,42924,8310,24868,0,0,0,0,0.00,0.00,0.00,0.00
2014-07-04 00:10:00,2,41963,0,0.00,2,2,0,2,29212,50000,7846,44678,0,0,0,0,0.00,0.00,0.00,0.00
2014-07-04 00:20:00,2,18468,0,0.00,2,2,0,2,10449,28740,6161,17248,0,0,0,0,0.00,0.00,0.00,0.00
2014-07-04 00:30:00,2,14220,0,0.00,2,2,0,2,10477,19896,3230,12900,0,0,0,0,0.00,0.00,0.00,0.00
2014-07-04 00:40:00,2,16746,0,0.00,2,2,0,2,10402,35915,7733,14583,0,0,0,0,0.00,0.00,0.00,0.00
2014-07-04 00:50:00,2,21915,0,0.00,2,2,0,2,13534,35440,6662,23359,0,0,0,0,0.00,0.00,0.00,0.00
2014-07-04 01:00:00,2,21034,0,0.00,2,2,0,2,8255,32607,8689,20247,0,0,0,0,0.00,0.00,0.00,0.00
2014-07-04 01:10:00,2,26949,0,0.00,2,2,0,2,13732,43839,9984,24425,0,0,0,0,0.00,0.00,0.00,0.00
2014-07-04 01:20:00,2,23682,0,0.00,2,2,0,2,13412,32024,5977,24248,0,0,0,0,0.00,0.00,0.00,0.00
2014-07-04 01:30:00,2,13816,0,0.00,2,2,0,2,8077,32198,6764,11288,0,0,0,0,0.00,0.00,0.00,0.00
2014-07-04 01:40:00,2,29602,0,0.00,2,2,0,2,19721,41496,5963,29010,0,0,0,0,0.00,0.00,0.00,0.00
2014-07-04 01:50:00,2,28923,0,0.00,2,2,0,2,15290,48754,11260,26648,0,0,0,0,0.00,0.00,0.00,0.00
2014-07-04 02:00:00,2,31458,0,0.00,2,2,0,2,11599,50000,13563,30064,0,0,0,0,0.00,0.00,0.00,0.00
2014-07-04 02:10:00,2,43726,0,0.00,2,2,0,2,34901,50000,5308,44948,0,0,0,0,0.00,0.00,0.00,0.00
2014-07-04 02:20:00,2,49896,0,0.00,2,2,0,2,48957,50000,313,50000,0,0,0,0,0.00,0.00,0.00,0.00
2014-07-04 02:30:00,2,49334,0,0.00,2,2,0,2,46543,50000,1208,50000,0,0,0,0,0.00,0.00,0.00,0.00
2014-07-04 02:40:00,2,49860,0,0.00,2,2,0,2,48597,50000,421,50000,0,0,0,0,0.00,0.00,0.00,0.00
2014-07-04 02:50:00,2,48401,0,0.00,2,2,0,2,40874,50000,2932,50000,0,0,0,0,0.00,0.00,0.00,0.00
2014-07-04 03:00:00,2,49688,0,0.00,2,2,0,2,48293,50000,592,50000,0,0,0,0,0.00,0.00,0.00,0.00
2014-07-04 03:10:00,2,49666,0,0.00,2,2,0,2,46663,50000,1001,50000,0,0,0,0,0.00,0.00,0.00,0.00
2014-07-04 03:20:00,2,49547,0,0.00,2,2,0,2,45469,50000,1359,50000,0,0,0,0,0.00,0.00,0.00,0.00
2014-07-04 03:30:00,2,50000,0,0.00,2,2,0,2,50000,50000,0,50000,0,0,0,0,0.00,0.00,0.00,0.00
2014-07-04 03:40:00,2,47967,0,0.00,2,2,0,2,43140,50000,2437,48872,0,0,0,0,0.00,0.00,0.00,0.00
2014-07-04 03:50:00,2,49015,0,0.00,2,2,0,2,46747,50000,1341,50000,0,0,0,0,0.00,0.00,0.00,0.00
2014-07-04 04:00:00,2,48495,0,0.00,2,2,0,2,41976,50000,2838,50000,0,0,0,0,0.00,0.00,0.00,0.00
2014-07-04 04:10:00,2,47594,0,0.00,2,2,0,2,41979,50000,3136,50000,0,0,0,0,0.00,0.00,0.00,0.00
2014-07-04 04:20:00,2,43309,0,0.00,2,2,0,2,39924,48258,2414,42396,0,0,0,0,0.00,0.00,0.00,0.00
2014-07-04 04:30:00,2,46582,0,0.00,2,2,0,2,35358,50000,4618,48684,0,0,0,0,0.00,0.00,0.00,0.00
2014-07-04 04:40:00,2,45655,0,0.00,2,2,0,2,37817,50000,4775,47700,0,0,0,0,0.00,0.00,0.00,0.00
2014-07-04 04:50:00,2,49450,0,0.00,2,2,0,2,45482,50000,1355,50000,0,0,0,0,0.00,0.00,0.00,0.00
2014-07-04 05:00:00,2,49759,0,0.00,2,2,0,2,48773,50000,482,50000,0,0,0,0,0.00,0.00,0.00,0.00
2014-07-04 05:10:00,2,49552,0,0.00,2,2,0,2,45939,50000,1209,50000,0,0,0,0,0.00,0.00,0.00,0.00
2014-07-04 05:20:00,2,43700,0,0.00,2,2,0,2,21137,50000,9159,47004,0,0,0,0,0.00,0.00,0.00,0.00
2014-07-04 05:30:00,2,41946,0,0.00,2,2,0,2,18523,50000,10191,46630,0,0,0,0,0.00,0.00,0.00,0.00
2014-07-04 05:40:00,2,48898,0,0.00,2,2,0,2,41726,50000,2527,50000,0,0,0,0,0.00,0.00,0.00,0.00
2014-07-04 05:50:00,2,49306,0,0.00,2,2,0,2,44485,50000,1631,50000,0,0,0,0,0.00,0.00,0.00,0.00
2014-07-04 06:00:00,2,48667,0,0.00,2,2,0,2,42528,50000,2236,50000,0,0,0,0,0.00,0.00,0.00,0.00
2014-07-04 06:10:00,2,43428,0,0.00,2,2,0,2,32375,50000,5540,44545,0,0,0,0,0.00,0.00,0.00,0.00
2014-07-04 06:20:00,2,47469,0,0.00,2,2,0,2,39383,50000,4029,49860,0,0,0,0,0.00,0.00,0.00,0.00
2014-07-04 06:30:00,2,48717,0,0.00,2,2,0,2,45725,50000,1620,50000,0,0,0,0,0.00,0.00,0.00,0.00
2014-07-04 06:40:00,2,47740,0,0.00,2,2,0,2,43222,50000,2212,48345,0,0,0,0,0.00,0.00,0.00,0.00
2014-07-04 06:50:00,2,49868,0,0.00,2,2,0,2,49392,50000,213,50000,0,0,0,0,0.00,0.00,0.00,0.00
2014-07-04 07:00:00,2,50000,0,0.00,2,2,0,2,50000,50000,0,50000,0,0,0,0,0.00,0.00,0.00,0.00
2014-07-04 07:10:00,2,50000,0,0.00,2,2,0,2,50000,50000,0,50000,0,0,0,0,0.00,0.00,0.00,0.00
2014-07-04 07:20:00,2,50000,0,0.00,2,2,0,2,50000,50000,0,50000,0,0,0,0,0.00,0.00,0.00,0.00
2014-07-04 07:30:00,2,50000,0,0.00,2,2,0,2,50000,50000,0,50000,0,0,0,0,0.00,0.00,0.00,0.00
2014-07-04 07:40:00,2,49992,0,0.00,2,2,0,2,49921,50000,24,50000,0,0,0,0,0.00,0.00,0.00,0.00
2014-07-04 07:50:00,2,50000,0,0.00,2,2,0,2,50000,50000,0,50000,0,0,0,0,0.00,0.00,0.00,0.00
2014-07-04 08:00:00,2,50000,0,0.00,2,2,0,2,50000,50000,0,50000,0,0,0,0,0.00,0.00,0.00,0.00
2014-07-04 08:10:00,2,49416,0,0.00,2,2,0,2,46912,50000,1171,50000,0,0,0,0,0.00,0.00,0.00,0.00
2014-07-04 08:20:00,2,49996,0,0.00,2,2,0,2,49962,50000,11,50000,0,0,0,0,0.00,0.00,0.00,0.00
2014-07-04 08:30:00,2,48926,0,0.00,2,2,0,2,44137,50000,2013,50000,0,0,0,0,0.00,0.00,0.00,0.00
2014-07-04 08:40:00,2,48918,0,0.00,2,2,0,2,45358,50000,1646,49956,0,0,0,0,0.00,0.00,0.00,0.00
2014-07-04 08:50:00,2,49608,0,0.00,2,2,0,2,48366,50000,561,50000,0,0,0,0,0.00,0.00,0.00,0.00
2014-07-04 09:00:00,2,49897,0,0.00,2,2,0,2,48971,50000,309,50000,0,0,0,0,0.00,0.00,0.00,0.00
2014-07-04 09:10:00,2,49152,0,0.00,2,2,0,2,44802,50000,1750,50000,0,0,0,0,0.00,0.00,0.00,0.00
2014-07-04 09:20:00,2,50000,0,0.00,2,2,0,2,50000,50000,0,50000,0,0,0,0,0.00,0.00,0.00,0.00
2014-07-04 09:30:00,2,49660,0,0.00,2,2,0,2,47622,50000,709,50000,0,0,0,0,0.00,0.00,0.00,0.00
2014-07-04 09:40:00,2,50000,0,0.00,2,2,0,2,50000,50000,0,50000,0,0,0,0,0.00,0.00,0.00,0.00
2014-07-04 09:50:00,2,50000,0,0.00,2,2,0,2,50000,50000,0,50000,0,0,0,0,0.00,0.00,0.00,0.00
2014-07-04 10:00:00,2,49972,0,0.00,2,2,0,2,49717,50000,85,50000,0,0,0,0,0.00,0.00,0.00,0.00
2014-07-04 10:10:00,2,50000,0,0.00,2,2,0,2,50000,50000,0,50000,0,0,0,0,0.00,0.00,0.00,0.00
2014-07-04 10:20:00,2,49972,0,0.00,2,2,0,2,49720,50000,84,50000,0,0,0,0,0.00,0.00,0.00,0.00
2014-07-04 10:30:00,2,49902,0,0.00,2,2,0,2,49016,50000,295,50000,0,0,0,0,0.00,0.00,0.00,0.00
2014-07-04 10:40:00,2,49937,0,0.00,2,2,0,2,49367,50000,190,50000,0,0,0,0,0.00,0.00,0.00,0.00
2014-07-04 10:50:00,2,50000,0,0.00,2,2,0,2,50000,50000,0,50000,0,0,0,0,0.00,0.00,0.00,0.00
2014-07-04 11:00:00,2,50000,0,0.00,2,2,0,2,50000,50000,0,50000,0,0,0,0,0.00,0.00,0.00,0.00
2014-07-04 11:10:00,2,49828,0,0.00,2,2,0,2,48275,50000,518,50000,0,0,0,0,0.00,0.00,0.00,0.00
2014-07-04 11:20:00,2,50000,0,0.00,2,2,0,2,50000,50000,0,50000,0,0,0,0,0.00,0.00,0.00,0.00
2014-07-04 11:30:00,2,50000,0,0.00,2,2,0,2,50000,50000,0,50000,0,0,0,0,0.00,0.00,0.00,0.00
2014-07-04 11:40:00,2,50000,0,0.00,2,2,0,2,50000,50000,0,50000,0,0,0,0,0.00,0.00,0.00,0.00
2014-07-04 11:50:00,2,50000,0,0.00,2,2,0,2,50000,50000,0,50000,0,0,0,0,0.00,0.00,0.00,0.00
2014-07-04 12:00:00,2,49229,0,0.00,2,2,0,2,46484,50000,1288,50000,0,0,0,0,0.00,0.00,0.00,0.00
2014-07-04 12:10:00,2,48634,0,0.00,2,2,0,2,40152,50000,3047,50000,0,0,0,0,0.00,0.00,0.00,0.00
2014-07-04 12:20:00,2,50000,0,0.00,2,2,0,2,50000,50000,0,50000,0,0,0,0,0.00,0.00,0.00,0.00
2014-07-04 12:30:00,2,50000,0,0.00,2,2,0,2,50000,50000,0,50000,0,0,0,0,0.00,0.00,0.00,0.00
2014-07-04 12:40:00,2,49914,0,0.00,2,2,0,2,49145,50000,256,50000,0,0,0,0,0.00,0.00,0.00,0.00
2014-07-04 12:50:00,2,50000,0,0.00,2,2,0,2,50000,50000,0,50000,0,0,0,0,0.00,0.00,0.00,0.00
2014-07-04 13:00:00,2,50000,0,0.00,2,2,0,2,50000,50000,0,50000,0,0,0,0,0.00,0.00,0.00,0.00
2014-07-04 13:10:00,2,50000,0,0.00,2,2,0,2,50000,50000,0,50000,0,0,0,0,0.00,0.00,0.00,0.00
2014-07-04 13:20:00,2,49983,0,0.00,2,2,0,2,49828,50000,52,50000,0,0,0,0,0.00,0.00,0.00,0.00
2014-07-04 13:30:00,2,50000,0,0.00,2,2,0,2,50000,50000,0,50000,0,0,0,0,0.00,0.00,0.00,0.00
2014-07-04 13:40:00,2,50000,0,0.00,2,2,0,2,50000,50000,0,50000,0,0,0,0,0.00,0.00,0.00,0.00
2014-07-04 13:50:00,2,50000,0,0.00,2,2,0,2,50000,50000,0,50000,0,0,0,0,0.00,0.00,0.00,0.00
2014-07-04 14:00:00,2,50000,0,0.00,2,2,0,2,50000,50000,0,50000,0,0,0,0,0.00,0.00,0.00,0.00
2014-07-04 14:10:00,2,50000,0,0.00,2,2,0,2,50000,50000,0,50000,0,0,0,0,0.00,0.00,0.00,0.00
2014-07-04 14:20:00,2,50000,0,0.00,2,2,0,2,50000,50000,0,50000,0,0,0,0,0.00,0.00,0.00,0.00
2014-07-04 14:30:00,2,50000,0,0.00,2,2,0,2,50000,50000,0,50000,0,0,0,0,0.00,0.00,0.00,0.00
2014-07-04 14:40:00,2,50000,0,0.00,2,2,0,2,50000,50000,0,50000,0,0,0,0,0.00,0.00,0.00,0.00
2014-07-04 14:50:00,2,50000,0,0.00,2,2,0,2,50000,50000,0,50000,0,0,0,0,0.00,0.00,0.00,0.00
2014-07-04 15:00:00,2,50000,0,0.00,2,2,0,2,50000,50000,0,50000,0,0,0,0,0.00,0.00,0.00,0.00
2014-07-04 15:10:00,2,50000,0,0.00,2,2,0,2,50000,50000,0,50000,0,0,0,0,0.00,0.00,0.00,0.00
2014-07-04 15:20:00,2,50000,0,0.00,2,2,0,2,50000,50000,0,50000,0,0,0,0,0.00,0.00,0.00,0.00
2014-07-04 15:30:00,2,50000,0,0.00,2,2,0,2,50000,50000,0,50000,0,0,0,0,0.00,0.00,0.00,0.00
2014-07-04 15:40:00,2,49390,0,0.00,2,2,0,2,46433,50000,1242,50000,0,0,0,0,0.00,0.00,0.00,0.00
2014-07-04 15:50:00,2,10094,3,0.00,2,2,0,2,1447,48177,13351,5954,0,10,5,0,0.00,0.00,0.00,0.00
2014-07-04 16:00:00,2,1037,12,0.00,2,2,0,2,756,1478,252,916,10,30,6,10,0.00,0.00,0.00,0.00
2014-07-04 16:10:00,2,871,34,0.00,2,2,0,2,641,1362,228,784,30,34,1,34,0.00,0.00,0.00,0.00
2014-07-04 16:20:00,2,1129,34,0.00,2,2,0,2,670,2029,389,983,34,34,0,34,0.00,0.00,0.00,0.00
2014-07-04 16:30:00,2,3633,23,0.00,2,2,0,2,1236,7597,2285,3180,20,30,5,20,0.00,0.00,0.00,0.00
2014-07-04 16:40:00,2,19445,20,0.00,2,2,0,2,3528,26032,7173,21622,20,20,0,20,0.00,0.00,0.00,0.00
2014-07-04 16:50:00,2,40651,20,0.00,2,2,0,2,23825,50000,9551,43764,20,20,0,20,0.00,0.00,0.00,0.00
2014-07-04 17:00:00,2,50000,20,0.00,2,2,0,2,50000,50000,0,50000,20,20,0,20,0.00,0.00,0.00,0.00
2014-07-04 17:10:00,2,50000,20,0.00,2,2,0,2,50000,50000,0,50000,20,20,0,20,0.00,0.00,0.00,0.00
2014-07-04 17:20:00,2,50000,20,0.00,2,2,0,2,50000,50000,0,50000,20,20,0,20,0.00,0.00,0.00,0.00
2014-07-04 17:30:00,2,50000,4,0.00,2,2,0,2,50000,50000,0,50000,0,20,8,0,0.00,0.00,0.00,0.00
2014-07-04 17:40:00,2,50000,0,0.00,2,2,0,2,50000,50000,0,50000,0,0,0,0,0.00,0.00,0.00,0.00
2014-07-04 17:50:00,2,50000,0,0.00,2,2,0,2,50000,50000,0,50000,0,0,0,0,0.00,0.00,0.00,0.00
2014-07-04 18:00:00,2,50000,0,0.00,2,2,0,2,50000,50000,0,50000,0,0,0,0,0.00,0.00,0.00,0.00
2014-07-04 18:10:00,2,50000,0,0.00,2,2,0,2,50000,50000,0,50000,0,0,0,0,0.00,0.00,0.00,0.00
2014-07-04 18:20:00,2,50000,0,0.00,2,2,0,2,50000,50000,0,50000,0,0,0,0,0.00,0.00,0.00,0.00
2014-07-04 18:30:00,2,50000,0,0.00,2,2,0,2,50000,50000,0,50000,0,0,0,0,0.00,0.00,0.00,0.00
2014-07-04 18:40:00,2,50000,0,0.00,2,2,0,2,50000,50000,0,50000,0,0,0,0,0.00,0.00,0.00,0.00
2014-07-04 18:50:00,2,50000,0,0.00,2,2,0,2,50000,50000,0,50000,0,0,0,0,0.00,0.00,0.00,0.00
2014-07-04 19:00:00,2,49920,0,0.00,2,2,0,2,49369,50000,190,50000,0,0,0,0,0.00,0.00,0.00,0.00
2014-07-04 19:10:00,2,49802,0,0.00,2,2,0,2,48016,50000,595,50000,0,0,0,0,0.00,0.00,0.00,0.00
2014-07-04 19:20:00,2,50000,0,0.00,2,2,0,2,50000,50000,0,50000,0,0,0,0,0.00,0.00,0.00,0.00
2014-07-04 19:30:00,2,49865,0,0.00,2,2,0,2,48649,50000,405,50000,0,0,0,0,0.00,0.00,0.00,0.00
2014-07-04 19:40:00,2,43372,0,0.00,2,2,0,2,23385,50000,8205,46934,0,0,0,0,0.00,0.00,0.00,0.00
2014-07-04 19:50:00,2,48057,0,0.00,2,2,0,2,44383,50000,1993,48528,0,0,0,0,0.00,0.00,0.00,0.00
2014-07-04 20:00:00,2,46437,0,0.00,2,2,0,2,40300,50000,3555,47846,0,0,0,0,0.00,0.00,0.00,0.00
2014-07-04 20:10:00,2,25195,0,0.00,2,2,0,2,12786,45644,11567,19766,0,0,0,0,0.00,0.00,0.00,0.00
2014-07-04 20:20:00,2,11517,0,0.00,2,2,0,2,8343,15065,2345,11400,0,0,0,0,0.00,0.00,0.00,0.00
2014-07-04 20:30:00,2,7896,2,0.00,2,2,0,2,3678,12167,2342,8217,0,10,4,0,0.00,0.00,0.00,0.00
2014-07-04 20:40:00,2,12336,10,0.00,2,2,0,2,4783,29017,7439,9587,10,10,0,10,0.00,0.00,0.00,0.00
2014-07-04 20:50:00,2,28327,5,0.00,2,2,0,2,11506,49816,14978,24634,0,10,5,5,0.00,0.00,0.00,0.00
2014-07-04 21:00:00,2,50000,0,0.00,2,2,0,2,50000,50000,0,50000,0,0,0,0,0.00,0.00,0.00,0.00
2014-07-04 21:10:00,2,49966,0,0.00,2,2,0,2,49742,50000,79,50000,0,0,0,0,0.00,0.00,0.00,0.00
2014-07-04 21:20:00,2,47715,0,0.00,2,2,0,2,38943,50000,4168,50000,0,0,0,0,0.00,0.00,0.00,0.00
2014-07-04 21:30:00,2,45882,0,0.00,2,2,0,2,36882,50000,4798,48146,0,0,0,0,0.00,0.00,0.00,0.00
2014-07-04 21:40:00,2,49159,0,0.00,2,2,0,2,44056,50000,1853,50000,0,0,0,0,0.00,0.00,0.00,0.00
2014-07-04 21:50:00,2,46958,0,0.00,2,2,0,2,39797,50000,3970,50000,0,0,0,0,0.00,0.00,0.00,0.00
2014-07-04 22:00:00,2,49370,0,0.00,2,2,0,2,47310,50000,994,50000,0,0,0,0,0.00,0.00,0.00,0.00
2014-07-04 22:10:00,2,44352,0,0.00,2,2,0,2,33161,50000,5057,45138,0,0,0,0,0.00,0.00,0.00,0.00
2014-07-04 22:20:00,2,48400,0,0.00,2,2,0,2,40592,50000,2868,50000,0,0,0,0,0.00,0.00,0.00,0.00
2014-07-04 22:30:00,2,48970,0,0.00,2,2,0,2,44195,50000,1935,50000,0,0,0,0,0.00,0.00,0.00,0.00
2014-07-04 22:40:00,2,48994,0,0.00,2,2,0,2,46279,50000,1102,49260,0,0,0,0,0.00,0.00,0.00,0.00
2014-07-04 22:50:00,2,48369,0,0.00,2,2,0,2,41767,50000,2547,50000,0,0,0,0,0.00,0.00,0.00,0.00
2014-07-04 23:00:00,2,42936,0,0.00,2,2,0,2,33652,50000,5796,42184,0,0,0,0,0.00,0.00,0.00,0.00
2014-07-04 23:10:00,2,47478,0,0.00,0,2,1,2,40177,50000,3247,49244,0,0,0,0,0.00,0.00,0.00,0.00
2014-07-04 23:20:00,1,47984,0,0.00,0,2,1,2,38455,50000,3806,50000,0,0,0,0,0.00,0.00,0.00,0.00
2014-07-04 23:30:00,2,43016,0,0.00,2,2,0,2,31819,50000,5485,43520,0,0,0,0,0.00,0.00,0.00,0.00
2014-07-04 23:40:00,2,46923,0,0.00,2,2,0,2,41373,50000,3124,47323,0,0,0,0,0.00,0.00,0.00,0.00
2014-07-04 23:50:00,2,43552,0,0.00,2,2,0,2,34905,50000,5969,45316,0,0,0,0,0.00,0.00,0.00,0.00
